Flag for Germany

Past Weather in Haan, North Rhine-Westphalia, Germany — Yesterday and Last 2 Weeks

Now
72 °F

Passing clouds.


Feels Like: 72 °F
Forecast: 78 / 66 °F
Wind: 3 mph from Southeast

Location: Duesseldorf
Current Time: Aug 13, 2020 at 8:34:43 am
Latest Report: Aug 13, 2020 at 7:50 am
Visibility: N/A
Pressure29.89 "Hg
Humidity: 78%
Dew Point: 64 °F
Location of HaanLocation

Past Weather in Haan — Graph

°F

Haan Temperature Yesterday

Maximum temperature yesterday: 91 °F (at 2:50 pm)
Minimum temperature yesterday: 68 °F (at 4:50 am)
Average temperature yesterday: 79 °F

High & Low Weather Summary for the Past Weeks

 TemperatureHumidityPressure
High99 °F (Aug 8, 4:20 pm)94% (Aug 3, 4:20 am)30.18 "Hg (Aug 3, 4:20 am)
Low52 °F (Jul 30, 5:50 am)20% (Aug 8, 4:50 pm)29.86 "Hg (Aug 3, 4:20 pm)
Average75 °F53%30.01 "Hg
* Reported Jul 29 7:20 am — Aug 13 7:20 am, Haan. Weather by CustomWeather, © 2020

Note: Actual official high and low records may vary slightly from our data, if they occured in-between our weather recording intervals... More about our weather records

Haan Weather History for the Previous 24 Hours

Scroll right to see more
 ConditionsComfort  
Time TempWeatherWind HumidityBarometerVisibility
7:20 am
Thu, Aug 13
72 °FPassing clouds.5 mph78%29.89 "HgN/A
6:50 am72 °FSprinkles. Passing clouds.7 mph78%29.89 "HgN/A
6:20 am72 °FSprinkles. Passing clouds.6 mph83%29.89 "HgN/A
5:50 am72 °FSprinkles. Passing clouds.3 mph78%29.89 "HgN/A
5:20 am72 °FSprinkles. Passing clouds.7 mph78%29.89 "HgN/A
4:50 am72 °FSprinkles. Passing clouds.7 mph73%29.89 "HgN/A
4:20 am70 °FSprinkles. Passing clouds.3 mph78%29.89 "HgN/A
3:50 am70 °FClear.1 mph73%29.89 "Hg10 mi
3:20 am70 °FClear.2 mph73%29.89 "Hg10 mi
2:50 am70 °FClear.5 mph78%29.89 "Hg10 mi
2:20 am72 °FClear.6 mph73%29.89 "Hg10 mi
1:50 am72 °FPassing clouds.5 mph73%29.89 "HgN/A
1:20 am72 °FPassing clouds.5 mph73%29.89 "HgN/A
12:50 am72 °FClear.3 mph73%29.89 "Hg10 mi
12:20 am73 °FPassing clouds.3 mph69%29.92 "HgN/A
11:50 pm
Wed, Aug 12
73 °FPassing clouds.7 mph69%29.92 "HgN/A
11:20 pm73 °FPassing clouds.9 mph69%29.92 "HgN/A
10:50 pm75 °FClear.8 mph65%29.92 "Hg10 mi
10:20 pm75 °FPassing clouds.8 mph65%29.92 "HgN/A
9:50 pm77 °FPassing clouds.10 mph61%29.92 "HgN/A
9:20 pm77 °FPassing clouds.10 mph61%29.92 "HgN/A
8:50 pm79 °FPassing clouds.9 mph58%29.92 "HgN/A
8:20 pm79 °FSunny.12 mph61%29.89 "Hg10 mi
7:50 pm84 °FSunny.15 mph55%29.89 "Hg10 mi
7:20 pm90 °FSunny.7 mph43%29.89 "Hg10 mi
6:50 pm90 °FSunny.2 mph43%29.89 "Hg10 mi
6:20 pm90 °FPassing clouds.3 mph43%29.89 "HgN/A
5:50 pm90 °FPassing clouds.7 mph43%29.89 "HgN/A
5:20 pm90 °FSunny.3 mph43%29.89 "Hg10 mi
4:50 pm91 °FPassing clouds.7 mph41%29.92 "HgN/A
4:20 pm91 °FPassing clouds.9 mph41%29.92 "HgN/A
3:50 pm91 °FSunny.6 mph41%29.92 "Hg10 mi
3:20 pm91 °FPassing clouds.8 mph38%29.92 "HgN/A
2:50 pm91 °FPassing clouds.9 mph38%29.95 "HgN/A
2:20 pm90 °FPassing clouds.13 mph41%29.95 "HgN/A
1:50 pm90 °FPassing clouds.12 mph41%29.95 "HgN/A
1:20 pm88 °FPassing clouds.12 mph43%29.95 "HgN/A
12:50 pm86 °FPassing clouds.12 mph46%29.95 "HgN/A
12:20 pm84 °FSunny.10 mph51%29.98 "Hg10 mi
11:50 am82 °FPassing clouds.12 mph55%29.98 "HgN/A
11:20 am81 °FPassing clouds.10 mph58%29.98 "HgN/A
10:50 am81 °FPassing clouds.8 mph62%29.98 "HgN/A
10:20 am79 °FPassing clouds.6 mph65%29.98 "HgN/A
9:50 am77 °FPassing clouds.10 mph69%29.98 "HgN/A
9:20 am77 °FSunny.10 mph69%29.98 "Hg10 mi
8:50 am75 °FPassing clouds.9 mph69%29.98 "HgN/A
8:20 am75 °FScattered showers. Passing clouds.9 mph65%29.98 "HgN/A
Weather by CustomWeather, © 2020

See weather overview